Theta_e
294 294 293 291 290 291 295 297 298 298 298 302 303 303 303 303 303 303 298 301 300 294 295 297 297 297 296 293 293 295 292 294 294 295 297 295 297 298 298 300 303 300 303 305 308 306 308 306 307 313 308 306 306 304
294 293 292 290 290 293 296 298 297 297 299 301 302 303 302 302 302 302 298 299 300 297 296 298 298 298 299 297 293 293 294 295 293 292 292 294 297 295 297 299 298 298 300 304 305 305 304 306 306 305 306 304 304 303
294 293 290 290 292 295 297 297 296 298 300 300 300 300 301 302 302 302 297 298 299 298 297 296 296 298 299 298 297 295 293 295 294 291 291 293 298 293 296 298 299 298 302 302 304 305 304 305 305 304 303 303 302 302
294 292 290 290 293 296 297 297 299 299 299 300 299 299 299 299 298 298 298 298 298 296 295 297 299 298 298 299 298 298 296 295 294 291 293 295 296 295 298 299 301 301 304 305 304 304 304 306 304 303 303 303 303 303
293 291 290 290 294 296 296 297 300 300 299 299 300 300 300 299 300 300 299 298 298 297 296 296 298 299 299 299 297 297 296 292 291 293 294 296 294 297 297 298 301 304 304 305 306 304 304 304 304 303 303 303 303 303
293 290 290 291 295 296 296 297 299 300 301 301 301 300 300 298 298 299 295 299 299 299 294 296 297 299 299 299 298 296 295 292 290 293 293 293 293 297 299 302 302 303 303 303 304 304 303 303 303 303 303 304 304 304
292 290 290 292 294 295 295 296 297 299 300 301 301 301 300 298 298 297 294 300 300 299 294 296 298 298 299 299 297 295 295 291 291 292 294 294 297 298 300 303 303 304 302 303 304 303 305 304 304 304 304 305 305 306
292 290 290 292 294 295 296 295 296 296 297 298 298 299 300 300 300 299 299 300 301 300 297 296 297 297 298 296 298 295 293 292 292 293 294 297 297 302 303 304 303 302 304 304 305 305 305 305 304 305 306 306 306 304
291 290 291 293 295 296 297 296 295 295 295 296 297 298 298 298 297 297 297 299 300 300 295 296 297 297 297 296 295 295 293 295 293 296 298 296 299 305 304 303 304 303 305 304 305 307 307 306 307 307 307 307 305 304
291 290 291 294 296 297 298 298 296 296 296 296 296 295 290 296 296 296 297 294 293 293 294 296 293 298 296 295 296 296 294 292 298 299 296 295 299 301 301 301 303 304 304 304 305 306 305 308 308 308 308 308 306 305
291 291 292 293 295 296 298 298 297 296 296 296 295 291 296 296 296 291 288 291 290 295 294 294 295 297 295 297 296 294 294 293 299 297 297 295 297 299 298 300 303 304 304 304 303 303 303 305 307 307 306 306 305 305
291 291 292 294 294 295 297 297 296 295 296 296 296 296 295 291 287 291 286 292 295 298 295 296 296 295 295 293 296 294 296 295 299 293 294 295 296 297 298 299 302 303 304 304 304 303 303 304 306 306 306 305 305 305
291 292 293 294 294 296 296 296 296 296 296 296 295 289 290 288 289 292 294 297 296 296 296 296 298 296 295 293 295 298 299 296 296 299 296 293 296 297 298 298 301 303 304 304 304 304 303 303 304 306 305 305 305 304
291 292 293 294 296 296 297 297 297 297 297 293 294 292 290 290 296 296 297 297 295 294 296 296 295 298 295 297 294 301 298 297 300 293 291 293 297 297 297 298 300 301 303 304 304 304 303 303 303 304 306 305 304 303
291 293 293 295 296 297 297 297 297 298 298 294 294 294 296 293 294 295 294 294 293 294 294 295 294 295 296 298 296 297 299 300 300 295 292 295 297 296 295 298 299 302 303 304 304 303 303 303 303 303 304 308 307 304
292 293 293 295 296 297 297 297 296 297 297 294 295 296 295 296 294 294 294 294 293 293 293 294 297 299 298 298 301 298 299 300 298 296 295 296 296 293 293 296 300 301 302 303 304 303 303 303 303 303 303 303 303 307
292 293 293 295 297 297 297 296 295 292 293 296 296 294 295 296 296 294 293 294 294 294 295 295 299 300 296 298 300 298 299 297 296 296 295 296 295 294 295 296 297 296 296 297 299 303 303 303 304 303 302 302 304 302
294 293 293 296 297 296 296 294 292 290 294 295 297 295 294 294 295 294 292 292 292 291 292 294 293 295 299 301 298 294 295 293 293 292 293 296 295 295 295 295 295 295 296 297 297 297 302 303 302 302 302 304 302 302
293 292 295 296 296 295 292 292 293 294 294 294 293 293 294 294 293 294 294 294 294 293 291 292 294 293 293 292 293 291 291 291 291 291 293 294 294 295 295 296 296 296 296 297 297 297 299 301 303 303 302 305 303 302
292 294 296 295 295 292 290 291 293 294 294 294 293 294 294 294 293 293 293 293 292 292 295 293 293 292 291 290 290 291 292 293 291 291 291 293 295 295 295 295 296 295 295 296 296 297 298 299 301 301 302 303 303 302
293 294 294 294 294 292 291 291 291 292 292 293 293 293 293 292 293 294 294 293 294 294 295 292 291 291 292 293 295 295 295 295 293 293 292 291 296 295 295 295 295 295 295 295 296 297 297 298 298 299 301 303 303 302
293 294 294 294 291 292 289 291 290 291 291 292 293 292 294 293 294 293 292 294 294 293 292 291 292 293 293 293 294 295 296 295 295 295 295 294 294 294 294 294 294 295 295 296 296 296 297 298 298 299 299 301 303 302
294 294 293 291 289 287 289 292 293 291 293 293 291 295 293 293 292 292 294 293 292 294 296 295 295 296 296 297 296 296 296 296 295 295 295 295 295 295 295 295 295 295 295 297 297 298 298 298 299 299 299 300 300 300
294 294 289 289 287 292 291 293 291 291 291 293 293 294 294 293 292 294 295 293 291 294 294 295 295 294 294 295 295 296 297 297 297 296 296 295 295 295 296 297 297 298 298 298 296 296 296 296 297 298 299 300 300 300
294 291 287 291 292 294 295 293 292 291 289 291 292 291 291 292 293 292 295 293 291 291 292 294 294 294 292 292 295 296 297 297 296 296 296 295 295 297 298 297 296 295 295 293 293 293 293 293 293 295 296 296 298 300
289 292 292 292 292 290 293 292 286 287 290 290 293 292 290 291 291 291 292 291 290 291 291 292 292 291 292 294 294 295 296 296 296 295 296 296 298 297 294 294 293 293 293 293 293 293 293 293 293 295 297 298 298 298
293 293 293 290 291 291 290 288 290 288 284 288 291 287 286 287 288 290 288 291 291 294 295 296 296 295 295 295 295 296 297 296 296 296 296 297 297 296 292 293 293 294 295 294 294 293 293 293 294 294 295 295 297 297
289 293 292 291 289 290 287 287 286 286 288 289 290 287 289 288 290 289 290 295 296 296 296 296 295 295 295 295 296 296 297 297 296 296 296 295 294 293 293 293 293 294 294 294 294 293 293 293 293 293 293 292 293 294
291 291 290 282 286 287 286 288 289 290 289 291 289 288 289 289 292 294 295 295 295 296 296 296 296 295 296 296 297 297 297 297 296 292 289 289 293 294 294 293 295 295 294 294 293 293 293 292 292 291 291 291 291 291
291 290 288 282 284 286 287 288 289 287 289 290 289 289 289 291 295 296 295 294 294 296 297 296 296 295 296 296 296 296 295 295 295 296 293 291 294 295 295 294 294 294 293 293 292 291 290 290 290 290 289 290 289 289
290 287 285 285 284 284 284 284 287 288 286 280 283 284 285 284 294 296 296 296 295 296 295 295 295 295 294 294 294 293 293 294 293 294 294 294 294 293 293 293 293 293 292 292 290 290 290 289 289 289 289 290 289 289
284 283 286 287 291 289 287 283 280 284 282 281 283 284 276 281 286 292 296 296 296 295 295 295 295 295 296 296 295 294 294 294 294 294 293 292 292 292 292 293 292 291 291 290 289 289 289 289 289 288 289 289 289 289
280 280 288 291 291 291 288 284 283 287 281 281 281 279 280 286 288 292 296 296 296 297 296 296 296 296 296 296 295 294 294 294 293 293 292 293 293 293 292 290 289 289 288 288 288 287 286 286 286 286 287 287 287 287
Wind_Speed
32 28 24 20 20 18 17 14 12 11 12 13 14 15 16 19 23 26 15 10 13 4 5 8 4 4 2 3 3 3 3 5 4 5 3 1 2 2 3 3 2 2 3 3 3 3 2 11 8 5 5 10 10 11
32 28 24 21 21 21 18 14 13 13 13 14 14 15 17 18 21 31 23 30 26 15 6 22 26 17 6 2 5 4 5 2 2 4 2 2 2 3 2 2 4 2 2 2 2 2 3 3 5 7 4 8 7 9
32 28 25 23 24 22 19 16 15 18 16 16 15 15 16 21 17 35 46 40 34 15 12 9 5 22 24 16 4 5 1 3 3 2 3 2 5 2 2 3 3 5 3 1 4 1 12 12 3 4 5 8 13 11
32 29 26 25 26 24 21 20 22 22 23 21 21 24 30 42 43 42 25 16 14 12 4 3 12 10 19 23 21 19 13 11 7 3 3 3 2 1 0 2 1 2 5 5 4 3 12 1 3 13 15 14 10 12
32 29 27 28 27 25 23 25 27 28 32 35 37 35 33 32 32 33 31 19 11 9 4 3 4 13 16 22 23 19 16 7 3 3 3 2 0 2 1 0 2 3 3 3 3 11 7 14 16 18 16 16 13 8
32 30 28 28 28 25 25 25 27 30 33 35 36 36 32 19 11 7 4 20 28 22 5 3 0 4 7 13 18 19 12 8 3 3 2 0 2 2 2 1 3 6 8 9 5 9 14 18 19 25 13 12 21 15
32 31 30 29 27 25 24 24 24 25 26 26 21 15 13 11 10 12 5 6 9 9 4 4 2 3 3 5 5 7 10 4 3 2 3 1 2 2 1 2 7 13 13 13 8 7 8 6 6 21 22 25 22 19
34 32 32 31 30 31 31 30 28 27 26 25 24 23 26 30 25 19 21 12 10 11 8 4 1 3 3 2 2 6 3 3 5 2 1 2 2 1 2 12 13 15 15 9 13 11 15 19 21 20 19 18 9 3
34 33 32 32 32 31 28 29 28 29 28 28 27 27 18 10 7 4 11 16 17 8 4 3 4 3 2 1 2 3 2 3 2 2 2 2 3 4 5 12 13 15 11 13 14 7 5 6 10 11 11 11 4 1
36 34 33 31 30 27 25 24 23 21 18 12 4 8 3 4 4 5 3 5 7 8 4 3 0 3 3 1 2 2 2 1 2 2 2 3 1 4 3 6 10 12 14 16 11 15 14 13 11 13 9 12 5 3
37 35 32 30 28 25 22 19 17 13 6 4 5 2 5 5 3 6 3 4 3 4 3 2 2 4 2 3 2 1 2 0 3 3 3 2 3 4 6 6 13 17 20 18 14 12 12 10 10 9 12 17 9 3
38 35 32 29 25 22 18 15 11 5 7 10 18 10 4 6 4 6 1 2 3 3 1 4 3 3 1 3 3 2 2 2 1 0 3 3 3 5 6 6 11 17 17 24 23 21 22 20 19 15 14 19 14 7
38 35 31 27 24 20 15 14 24 28 15 7 6 5 4 3 7 4 4 0 2 3 4 3 3 3 2 3 3 2 3 1 2 3 1 4 4 5 6 5 8 17 19 20 28 28 27 25 25 24 20 20 15 13
38 35 31 27 23 21 24 21 14 8 5 4 4 5 3 3 1 2 3 4 2 4 6 4 3 3 1 3 1 3 1 2 3 2 3 3 3 6 5 5 5 9 15 16 19 25 26 26 25 25 24 23 20 17
38 35 31 26 23 22 19 14 9 6 5 3 3 3 1 2 2 1 2 4 2 4 4 4 4 3 2 3 2 3 2 1 2 4 3 3 2 3 5 6 5 6 8 12 20 22 22 27 25 23 24 23 22 20
39 34 27 25 22 21 15 10 8 4 5 3 3 4 1 3 2 3 3 3 1 3 2 3 3 3 2 3 3 3 5 4 3 3 2 2 2 2 5 11 7 5 5 8 9 12 15 23 23 24 23 23 22 21
30 13 28 25 22 17 11 7 5 7 3 2 2 2 1 4 4 2 2 2 3 3 2 3 3 2 3 3 2 2 3 3 3 2 2 3 3 2 4 4 7 11 12 13 9 8 9 5 17 26 23 25 19 19
17 31 29 24 21 19 11 9 5 3 4 2 3 0 2 2 4 3 2 2 4 3 2 2 4 2 3 4 2 3 2 1 1 3 3 6 3 2 4 6 9 11 13 13 12 7 5 12 9 15 23 24 18 19
41 35 31 25 22 11 4 3 4 3 2 1 2 2 3 3 5 6 7 8 9 8 4 2 3 2 2 2 3 3 2 2 3 2 2 1 0 1 3 6 7 9 11 12 12 13 12 11 4 7 12 15 18 18
40 36 29 26 17 4 4 3 2 3 3 2 2 2 3 3 2 4 5 4 3 2 2 2 3 3 4 3 4 4 6 9 4 1 2 4 4 4 4 4 6 9 13 13 14 13 13 11 7 7 7 7 8 14
37 31 24 19 4 6 5 2 2 1 3 3 1 2 2 2 3 3 2 3 3 2 2 3 3 2 6 5 11 11 12 13 8 7 4 2 6 6 8 8 9 9 9 10 12 15 13 11 12 11 10 6 4 6
26 22 16 5 5 4 5 2 3 3 3 1 2 2 3 2 2 1 1 2 2 4 4 4 4 7 7 7 12 16 15 13 12 10 10 10 6 7 8 8 9 10 11 12 12 13 14 14 14 14 13 11 9 7
28 22 4 3 4 4 1 1 3 2 4 1 2 3 1 1 2 2 1 2 3 7 9 8 7 9 12 12 11 12 12 12 12 13 12 12 11 10 10 10 9 9 11 12 11 13 14 14 13 13 13 13 12 15
23 4 4 2 3 3 2 2 2 3 3 2 3 2 1 2 1 1 3 3 3 5 7 9 9 4 3 5 7 11 12 12 11 10 9 8 8 8 6 5 4 4 4 7 11 11 12 13 13 12 11 12 14 15
5 2 5 4 2 5 4 3 2 3 2 2 3 1 2 1 2 2 3 3 3 4 9 11 11 12 4 4 8 12 10 13 13 11 12 11 9 5 4 3 6 6 7 10 12 13 16 16 17 17 17 16 15 15
4 5 6 5 4 5 6 5 5 5 4 2 1 2 1 2 2 6 3 4 5 5 11 13 9 5 8 15 9 11 12 11 12 12 12 12 13 10 8 6 6 10 8 9 12 16 19 20 20 19 20 19 17 15
6 4 3 1 4 5 4 3 2 4 4 5 4 3 3 2 6 4 3 6 4 8 13 15 17 16 11 10 14 12 10 11 14 12 12 12 14 15 14 11 10 13 16 15 16 18 20 23 24 22 20 21 19 16
3 6 8 7 3 1 6 4 5 6 5 3 5 5 9 8 5 3 9 4 17 8 8 10 9 10 11 10 8 8 9 9 12 15 12 12 15 18 18 18 18 18 20 20 19 20 22 22 22 22 20 20 22 19
3 4 6 3 3 2 4 5 6 4 5 5 6 4 4 3 4 4 3 9 10 17 13 11 11 11 11 11 10 9 9 10 10 7 6 6 23 27 26 22 21 15 15 17 20 22 21 20 20 20 21 22 22 21
4 4 4 3 6 5 4 4 4 3 6 5 5 2 1 2 7 10 8 11 16 21 21 17 13 14 16 17 18 16 15 14 15 17 13 13 23 23 19 21 18 17 20 19 19 19 16 14 15 17 18 20 21 20
6 3 4 3 4 3 2 3 3 4 4 2 2 3 3 2 4 12 18 20 18 17 17 19 19 18 18 21 21 19 20 17 17 17 18 20 21 20 16 15 15 16 17 17 17 17 17 17 18 19 21 22 22 21
3 4 5 4 2 1 3 3 2 3 1 2 1 2 3 3 2 5 13 23 29 26 29 28 23 24 23 24 24 23 22 18 17 18 19 19 20 18 17 17 16 15 16 16 17 19 20 20 21 22 23 24 25 24
3 3 3 5 3 3 1 4 4 2 3 1 3 4 4 5 6 6 7 21 34 35 36 33 27 23 24 25 23 19 18 17 17 19 19 19 18 16 15 14 15 16 17 18 18 18 19 18 20 21 21 23 25 26
Wind_Direction
171 167 163 158 150 146 132 124 117 111 108 109 109 113 120 123 124 116 68 91 103 91 32 36 41 78 75 73 110 266 40 5 37 62 86 302 63 6 16 337 45 36 342 339 352 9 7 15 349 41 313 300 317 324
168 164 160 154 146 137 131 123 112 111 116 115 115 122 125 123 122 113 80 96 102 82 138 75 60 48 55 128 132 28 131 106 141 90 53 109 45 19 6 339 355 9 128 314 287 280 301 309 279 294 324 306 316 319
164 161 157 148 141 134 128 117 110 115 119 113 114 121 132 138 131 121 108 104 93 96 62 45 1 38 58 54 70 114 12 136 72 147 147 132 76 118 22 358 316 337 350 74 312 60 335 313 120 45 328 311 312 305
161 158 152 145 139 135 125 115 113 116 112 113 112 113 119 117 113 116 105 99 89 99 93 344 52 45 53 53 61 81 113 89 99 71 80 85 99 119 353 282 285 254 319 319 266 340 338 268 315 335 323 319 309 311
160 155 149 144 141 134 126 116 118 120 117 114 110 110 109 108 101 90 78 68 97 111 129 150 56 46 62 57 64 78 90 84 59 53 52 54 310 28 299 295 296 356 339 339 294 310 278 272 297 310 308 305 305 306
157 153 147 143 140 137 129 124 125 125 124 121 119 117 116 106 92 91 58 55 89 106 102 85 329 49 62 51 56 58 62 64 75 92 95 360 257 76 23 312 274 287 295 286 284 290 282 276 284 288 288 292 297 292
156 152 147 141 138 133 131 133 131 133 133 131 123 112 91 73 66 68 118 119 94 91 87 91 53 356 24 33 39 41 45 58 80 88 56 24 0 63 345 300 308 325 318 312 298 288 278 259 276 303 299 294 296 285
155 151 145 139 134 129 126 122 122 124 126 126 119 109 98 91 84 66 71 90 81 91 74 98 64 35 18 22 48 12 54 37 18 107 50 34 337 15 7 328 333 330 334 334 325 294 258 277 292 294 300 305 311 21
153 150 146 141 138 134 127 123 122 119 118 116 112 105 102 55 54 58 71 72 65 74 106 86 129 178 33 39 58 30 55 59 298 55 5 60 334 37 320 331 343 336 344 321 323 326 323 274 289 308 316 339 12 76
152 150 147 143 141 138 132 128 125 122 121 109 82 55 36 31 69 39 50 33 22 359 38 85 132 108 94 41 28 58 23 78 69 309 343 56 337 267 289 323 336 337 346 352 5 4 345 343 337 330 329 324 292 204
152 150 148 145 143 139 136 131 127 121 98 62 62 83 104 56 57 38 45 64 336 42 30 124 116 120 338 108 134 36 146 331 72 286 92 358 338 301 332 332 345 344 0 10 11 3 350 323 325 330 342 0 18 145
151 150 149 145 140 139 141 138 130 98 89 101 114 111 78 34 42 79 10 334 51 154 148 118 163 137 101 102 96 338 102 38 132 248 72 13 269 293 345 332 344 359 2 12 15 12 4 4 2 2 13 18 22 40
151 150 148 142 136 135 129 123 119 112 106 87 67 58 50 322 48 107 152 10 118 174 160 135 90 116 73 57 71 94 77 165 120 43 184 222 279 306 333 334 345 5 10 9 16 13 11 10 19 23 18 27 30 42
151 149 145 139 135 133 134 128 113 84 62 65 71 44 85 337 160 180 153 152 188 122 121 110 83 101 101 62 124 91 153 115 67 73 217 249 263 310 324 346 9 358 14 11 15 12 11 9 6 21 35 34 32 28
149 146 143 140 138 140 136 122 92 75 61 75 62 95 99 114 46 84 100 92 45 124 105 90 65 88 47 96 45 110 113 123 179 200 215 222 285 341 359 353 10 19 19 35 30 10 13 11 9 10 27 35 38 36
147 141 145 144 136 133 127 115 75 75 65 64 68 82 44 83 18 38 72 76 56 112 84 55 96 79 80 120 125 194 144 184 204 191 199 183 139 47 31 28 44 27 338 355 19 41 12 2 7 5 18 28 33 37
139 132 149 142 137 130 125 94 48 49 84 61 54 43 110 88 113 125 104 118 138 70 93 101 85 125 114 87 135 181 180 187 179 183 194 187 136 72 40 45 29 13 4 1 10 38 58 6 2 11 4 9 23 32
145 148 146 139 136 122 92 39 68 77 67 55 90 312 64 78 112 80 103 107 85 101 112 134 122 109 145 143 205 209 169 164 148 134 137 133 125 3 357 345 343 349 354 357 3 351 26 62 38 16 8 4 13 26
147 146 144 139 132 131 91 38 33 86 65 62 60 38 64 83 50 96 99 93 96 110 106 56 91 139 187 195 149 158 163 175 163 196 201 239 251 9 359 356 346 353 353 353 355 351 335 267 290 352 356 6 8 8
143 145 143 141 167 89 79 37 55 96 126 172 84 60 86 93 105 83 77 57 71 73 65 104 183 202 176 193 179 161 175 166 131 110 295 288 261 264 276 323 337 326 331 335 339 345 349 351 312 314 331 351 7 13
142 148 148 157 84 68 94 123 55 112 121 79 112 57 63 32 57 60 57 10 61 123 188 203 210 219 184 166 183 179 176 178 192 193 205 252 289 265 267 291 306 309 303 318 329 328 333 331 335 340 336 292 292 344
145 148 138 62 80 61 78 42 120 127 72 143 68 69 90 89 126 150 159 76 203 222 191 172 195 197 192 204 208 206 213 214 228 238 242 249 254 252 267 289 313 313 313 313 317 318 323 331 334 335 338 341 313 310
140 141 112 58 82 55 290 6 81 36 105 172 45 82 51 136 190 149 190 212 254 226 218 225 234 227 221 237 233 230 230 222 220 226 231 238 242 261 273 288 295 293 304 316 335 327 323 327 331 331 328 326 323 321
134 120 122 95 96 103 101 56 61 88 73 63 80 93 169 165 216 85 234 236 235 219 208 214 214 178 187 203 207 217 215 211 220 234 234 223 238 267 272 290 314 328 334 340 341 339 337 338 342 342 338 330 327 321
111 204 105 107 137 127 117 103 67 73 105 124 89 53 207 150 134 223 235 256 223 230 229 227 216 211 188 215 229 225 217 204 204 224 241 232 236 219 226 257 283 300 313 312 315 319 316 318 317 315 312 309 306 308
114 175 163 150 159 128 151 129 161 160 122 103 138 117 76 100 114 245 235 220 208 204 206 196 191 177 213 219 210 210 215 216 221 223 236 216 204 210 225 233 280 306 313 313 320 316 312 308 306 305 301 299 300 293
157 172 184 73 129 122 98 80 93 105 133 157 162 129 104 163 235 251 261 224 211 217 218 211 195 194 202 202 213 218 213 217 220 226 231 224 228 235 230 222 235 305 315 300 302 303 301 302 301 297 296 298 296 300
163 158 155 175 118 128 123 118 144 175 178 175 119 164 173 197 233 237 213 215 196 154 180 190 200 203 196 197 188 182 191 212 219 227 233 241 246 245 246 254 266 277 282 281 286 290 291 291 290 289 289 290 292 293
131 140 117 88 108 134 175 157 189 195 153 156 156 174 210 216 242 250 260 201 177 182 182 188 195 200 209 215 217 225 235 232 207 197 224 245 260 261 267 282 299 288 276 276 285 290 290 289 286 285 288 289 290 290
149 170 107 122 134 198 226 170 180 145 161 158 158 103 57 254 242 223 257 205 186 185 193 200 213 215 225 231 240 244 245 245 250 248 227 242 262 283 287 292 286 277 284 289 289 293 297 295 294 290 288 289 292 293
133 105 86 111 185 241 200 131 87 86 81 86 33 124 179 309 276 225 228 240 243 227 222 221 219 227 237 240 238 240 248 249 257 266 276 278 278 281 284 283 284 288 290 292 298 293 293 294 292 290 289 289 288 287
96 138 130 116 133 51 48 63 95 83 32 89 285 95 30 61 233 267 226 228 237 237 236 237 235 241 245 250 254 257 264 263 270 274 268 267 272 276 279 283 285 284 283 282 283 285 286 284 285 285 284 284 286 285
84 71 89 110 126 165 194 88 34 77 19 9 266 185 192 167 210 247 252 230 232 235 239 243 245 248 252 256 262 266 266 268 266 265 266 267 269 272 278 285 287 286 285 285 284 280 280 281 284 283 282 282 283 283